Simultaneous Nadir Overpasses (SNOs) Predictions

Prediction of SNOs between GOES-14 and NOAA-20 Satellite Orbit:

Table of predicted SNOs for the next 14.0 days since TLE Epoch: 11/16/2019
Index Date Time (GOES-14) GOES-14 Lat,Lon NOAA-20 Lat,Lon Distance(km) Time Diff (sec)
1 11/16/2019 20:32:56 -0.09,-104.08 -0.83,-107.28 364.90 80
2 11/17/2019 20:16:51 -0.10,-104.08 0.20,-102.75 152.26 80
3 11/19/2019 08:38:40 0.07,-104.24 0.90,-108.03 431.41 80
4 11/20/2019 08:17:15 0.08,-104.23 -0.06,-103.49 84.18 80
5 11/22/2019 20:20:27 -0.07,-104.06 -0.10,-104.26 22.62 80
6 11/23/2019 20:04:22 -0.08,-104.07 0.92, -99.73 494.83 80
7 11/25/2019 08:26:11 0.06,-104.24 0.23,-105.01 87.13 80
8 11/26/2019 08:04:46 0.08,-104.23 -0.79,-100.48 428.67 80
9 11/27/2019 20:26:41 -0.05,-104.05 -0.44,-105.77 196.57 80
10 11/28/2019 20:10:37 -0.06,-104.05 0.58,-101.24 320.73 80




NCC Satellite Simultaneous Nadir Overpasses (SNOs) Prediction Service
